Time,TemperatureF,DewpointF,PressureIn,WindDirection,WindDirectionDegrees,WindSpeedMPH,WindSpeedGustMPH,Humidity,HourlyPrecipIn,Conditions,Clouds,dailyrainin,SolarRadiationWatts/m^2,SoftwareType,DateUTC
2013-03-02 00:02:00,33.0,29.0,-100.00,WNW,297,4.0,7.0,84,0.00,,,0.00,0.000000,,2013-03-02 05:02:00,
2013-03-02 00:32:00,32.0,27.0,-100.00,NW,319,4.0,12.0,83,0.00,,,-99.99,0.000000,,2013-03-02 05:32:00,
2013-03-02 00:42:00,32.0,27.0,-100.00,NW,319,4.0,12.0,83,0.00,,,-99.99,0.000000,,2013-03-02 05:42:00,
2013-03-02 00:52:00,32.0,27.0,-100.00,NW,319,4.0,12.0,83,0.00,,,-99.99,0.000000,,2013-03-02 05:52:00,
2013-03-02 01:02:00,32.0,27.0,-100.00,NW,319,4.0,12.0,83,0.00,,,-99.99,0.000000,,2013-03-02 06:02:00,
2013-03-02 01:32:00,32.0,28.0,-100.00,WSW,255,2.0,8.0,85,0.00,,,0.00,0.000000,,2013-03-02 06:32:00,
2013-03-02 01:42:00,32.0,28.0,-100.00,WSW,255,2.0,8.0,85,0.00,,,0.00,0.000000,,2013-03-02 06:42:00,
2013-03-02 01:52:00,32.0,28.0,-100.00,WSW,255,2.0,8.0,85,0.00,,,0.00,0.000000,,2013-03-02 06:52:00,
2013-03-02 02:02:00,32.0,28.0,-100.00,WSW,255,2.0,8.0,85,0.00,,,0.00,0.000000,,2013-03-02 07:02:00,
2013-03-02 02:32:00,31.0,27.0,-100.00,SW,222,1.0,7.0,86,0.00,,,0.00,0.000000,,2013-03-02 07:32:00,
2013-03-02 02:42:00,31.0,27.0,-100.00,SW,222,1.0,7.0,86,0.00,,,0.00,0.000000,,2013-03-02 07:42:00,
2013-03-02 02:52:00,31.0,27.0,-100.00,SW,222,1.0,7.0,86,0.00,,,0.00,0.000000,,2013-03-02 07:52:00,
2013-03-02 03:01:00,31.0,27.0,-100.00,SW,222,1.0,7.0,86,0.00,,,0.00,0.000000,,2013-03-02 08:01:00,
2013-03-02 03:32:00,31.0,28.0,-100.00,South,183,2.0,5.0,90,0.00,,,0.00,0.000000,,2013-03-02 08:32:00,
2013-03-02 03:43:00,31.0,28.0,-100.00,South,183,2.0,5.0,90,0.00,,,0.00,0.000000,,2013-03-02 08:43:00,
2013-03-02 03:52:00,31.0,28.0,-100.00,South,183,2.0,5.0,90,0.00,,,0.00,0.000000,,2013-03-02 08:52:00,
2013-03-02 04:02:00,31.0,28.0,-100.00,South,183,2.0,5.0,90,0.00,,,0.00,0.000000,,2013-03-02 09:02:00,
2013-03-02 04:32:00,31.0,28.0,-100.00,WNW,291,5.0,13.0,87,0.00,,,0.00,0.000000,,2013-03-02 09:32:00,
2013-03-02 04:42:00,31.0,28.0,-100.00,WNW,291,5.0,13.0,87,0.00,,,0.00,0.000000,,2013-03-02 09:42:00,
2013-03-02 04:52:00,31.0,28.0,-100.00,WNW,291,5.0,13.0,87,0.00,,,0.00,0.000000,,2013-03-02 09:52:00,
2013-03-02 05:01:00,31.0,28.0,-100.00,WNW,291,5.0,13.0,87,0.00,,,0.00,0.000000,,2013-03-02 10:01:00,
2013-03-02 05:32:00,30.0,28.0,-100.00,West,272,2.0,10.0,92,0.00,,,0.00,0.000000,,2013-03-02 10:32:00,
2013-03-02 05:43:00,30.0,28.0,-100.00,West,272,2.0,10.0,92,0.00,,,0.00,0.000000,,2013-03-02 10:43:00,
2013-03-02 05:52:00,30.0,28.0,-100.00,West,272,2.0,10.0,92,0.00,,,0.00,0.000000,,2013-03-02 10:52:00,
2013-03-02 06:01:00,30.0,28.0,-100.00,West,272,2.0,10.0,92,0.00,,,0.00,0.000000,,2013-03-02 11:01:00,
2013-03-02 06:32:00,30.0,28.0,-100.00,WNW,284,4.0,8.0,91,0.00,,,0.00,0.000000,,2013-03-02 11:32:00,
2013-03-02 06:42:00,30.0,28.0,-100.00,WNW,284,4.0,8.0,91,0.00,,,0.00,0.000000,,2013-03-02 11:42:00,
2013-03-02 06:52:00,30.0,28.0,-100.00,WNW,284,4.0,8.0,91,0.00,,,0.00,0.000000,,2013-03-02 11:52:00,
2013-03-02 07:02:00,30.0,28.0,-100.00,WNW,284,4.0,8.0,91,0.00,,,0.00,0.000000,,2013-03-02 12:02:00,
2013-03-02 07:33:00,30.0,27.0,-100.00,West,272,3.0,9.0,89,0.00,,,0.00,0.000000,,2013-03-02 12:33:00,
2013-03-02 07:43:00,30.0,27.0,-100.00,West,272,3.0,9.0,89,0.00,,,0.00,0.000000,,2013-03-02 12:43:00,
2013-03-02 07:53:00,30.0,27.0,-100.00,West,272,3.0,9.0,89,0.00,,,0.00,0.000000,,2013-03-02 12:53:00,
2013-03-02 08:01:00,30.0,27.0,-100.00,West,272,3.0,9.0,89,0.00,,,0.00,0.000000,,2013-03-02 13:01:00,
2013-03-02 08:32:00,31.0,27.0,-100.00,SSW,208,4.0,12.0,86,0.00,,,0.00,14.000000,,2013-03-02 13:32:00,
2013-03-02 08:42:00,31.0,27.0,-100.00,SSW,208,4.0,12.0,86,0.00,,,0.00,14.000000,,2013-03-02 13:42:00,
2013-03-02 08:52:00,31.0,27.0,-100.00,SSW,208,4.0,12.0,86,0.00,,,0.00,14.000000,,2013-03-02 13:52:00,
2013-03-02 09:01:00,31.0,27.0,-100.00,SSW,208,4.0,12.0,86,0.00,,,0.00,14.000000,,2013-03-02 14:01:00,
2013-03-02 09:32:00,31.0,27.0,-100.00,NNE,21,4.0,16.0,86,0.00,,,0.00,49.000000,,2013-03-02 14:32:00,
2013-03-02 09:42:00,31.0,27.0,-100.00,NNE,21,4.0,16.0,86,0.00,,,0.00,49.000000,,2013-03-02 14:42:00,
2013-03-02 09:52:00,31.0,27.0,-100.00,NNE,21,4.0,16.0,86,0.00,,,0.00,49.000000,,2013-03-02 14:52:00,
2013-03-02 10:02:00,31.0,27.0,-100.00,NNE,21,4.0,16.0,86,0.00,,,0.00,49.000000,,2013-03-02 15:02:00,
2013-03-02 10:32:00,32.0,27.0,-100.00,NW,321,5.0,15.0,80,0.03,,,0.03,137.000000,,2013-03-02 15:32:00,
2013-03-02 10:42:00,32.0,27.0,-100.00,NW,321,5.0,15.0,80,0.03,,,0.03,137.000000,,2013-03-02 15:42:00,
2013-03-02 10:52:00,32.0,27.0,-100.00,NW,321,5.0,15.0,80,0.03,,,0.03,137.000000,,2013-03-02 15:52:00,
2013-03-02 11:02:00,32.0,27.0,-100.00,NW,321,5.0,15.0,80,0.03,,,0.03,137.000000,,2013-03-02 16:02:00,
2013-03-02 11:32:00,33.0,26.0,-100.00,North,4,4.0,13.0,76,0.01,,,0.04,296.000000,,2013-03-02 16:32:00,
2013-03-02 11:42:00,33.0,26.0,-100.00,North,4,4.0,13.0,76,0.01,,,0.04,296.000000,,2013-03-02 16:42:00,
2013-03-02 11:52:00,33.0,26.0,-100.00,North,4,4.0,13.0,76,0.01,,,0.04,296.000000,,2013-03-02 16:52:00,
2013-03-02 12:01:00,33.0,26.0,-100.00,North,4,4.0,13.0,76,0.01,,,0.04,296.000000,,2013-03-02 17:01:00,
2013-03-02 12:32:00,35.0,28.0,-100.00,NW,310,4.0,12.0,76,0.00,,,0.04,379.000000,,2013-03-02 17:32:00,
2013-03-02 12:42:00,35.0,28.0,-100.00,NW,310,4.0,12.0,76,0.00,,,0.04,379.000000,,2013-03-02 17:42:00,
2013-03-02 12:52:00,35.0,28.0,-100.00,NW,310,4.0,12.0,76,0.00,,,0.04,379.000000,,2013-03-02 17:52:00,
2013-03-02 13:02:00,35.0,28.0,-100.00,NW,310,4.0,12.0,76,0.00,,,0.04,379.000000,,2013-03-02 18:02:00,
2013-03-02 13:32:00,38.0,28.0,-100.00,South,185,4.0,12.0,67,0.00,,,0.04,662.000000,,2013-03-02 18:32:00,
2013-03-02 13:42:00,38.0,28.0,-100.00,South,185,4.0,12.0,67,0.00,,,0.04,662.000000,,2013-03-02 18:42:00,
2013-03-02 13:52:00,38.0,28.0,-100.00,South,185,4.0,12.0,67,0.00,,,0.04,662.000000,,2013-03-02 18:52:00,
2013-03-02 14:02:00,38.0,28.0,-100.00,South,185,4.0,12.0,67,0.00,,,0.04,662.000000,,2013-03-02 19:02:00,
2013-03-02 14:32:00,36.0,25.0,-100.00,NW,318,5.0,15.0,63,0.00,,,0.04,577.000000,,2013-03-02 19:32:00,
2013-03-02 14:43:00,36.0,25.0,-100.00,NW,318,5.0,15.0,63,0.00,,,0.04,577.000000,,2013-03-02 19:43:00,
2013-03-02 14:52:00,36.0,25.0,-100.00,NW,318,5.0,15.0,63,0.00,,,0.04,577.000000,,2013-03-02 19:52:00,
2013-03-02 15:01:00,36.0,25.0,-100.00,NW,318,5.0,15.0,63,0.00,,,0.04,577.000000,,2013-03-02 20:01:00,
2013-03-02 15:32:00,33.0,21.0,-100.00,NNW,332,9.0,16.0,61,0.01,,,0.05,460.000000,,2013-03-02 20:32:00,
2013-03-02 15:42:00,33.0,21.0,-100.00,NNW,332,9.0,16.0,61,0.01,,,0.05,460.000000,,2013-03-02 20:42:00,
2013-03-02 15:53:00,33.0,21.0,-100.00,NNW,332,9.0,16.0,61,0.01,,,0.05,460.000000,,2013-03-02 20:53:00,
2013-03-02 16:02:00,33.0,21.0,-100.00,NNW,332,9.0,16.0,61,0.01,,,0.05,460.000000,,2013-03-02 21:02:00,
2013-03-02 16:32:00,31.0,28.0,-100.00,NNW,329,5.0,14.0,87,0.02,,,0.07,196.000000,,2013-03-02 21:32:00,
2013-03-02 16:42:00,31.0,28.0,-100.00,NNW,329,5.0,14.0,87,0.02,,,0.07,196.000000,,2013-03-02 21:42:00,
2013-03-02 16:52:00,31.0,28.0,-100.00,NNW,329,5.0,14.0,87,0.02,,,0.07,196.000000,,2013-03-02 21:52:00,
2013-03-02 17:02:00,31.0,28.0,-100.00,NNW,329,5.0,14.0,87,0.02,,,0.07,196.000000,,2013-03-02 22:02:00,
2013-03-02 17:32:00,30.0,26.0,-100.00,NW,315,10.0,22.0,86,0.01,,,0.08,154.000000,,2013-03-02 22:32:00,
2013-03-02 17:42:00,30.0,26.0,-100.00,NW,315,10.0,22.0,86,0.01,,,0.08,154.000000,,2013-03-02 22:42:00,
2013-03-02 17:52:00,30.0,26.0,-100.00,NW,315,10.0,22.0,86,0.01,,,0.08,154.000000,,2013-03-02 22:52:00,
2013-03-02 18:02:00,30.0,26.0,-100.00,NW,315,10.0,22.0,86,0.01,,,0.08,154.000000,,2013-03-02 23:02:00,
2013-03-02 18:32:00,29.0,27.0,-100.00,WNW,303,6.0,15.0,91,0.00,,,0.08,41.000000,,2013-03-02 23:32:00,
2013-03-02 18:42:00,29.0,27.0,-100.00,WNW,303,6.0,15.0,91,0.00,,,0.08,41.000000,,2013-03-02 23:42:00,
2013-03-02 18:52:00,29.0,27.0,-100.00,WNW,303,6.0,15.0,91,0.00,,,0.08,41.000000,,2013-03-02 23:52:00,
2013-03-02 19:02:00,29.0,27.0,-100.00,WNW,303,6.0,15.0,91,0.00,,,0.08,41.000000,,2013-03-03 00:02:00,
2013-03-02 19:32:00,28.0,25.0,-100.00,NW,310,8.0,24.0,88,0.00,,,0.08,4.000000,,2013-03-03 00:32:00,
2013-03-02 19:42:00,28.0,25.0,-100.00,NW,310,8.0,24.0,88,0.00,,,0.08,4.000000,,2013-03-03 00:42:00,
2013-03-02 19:52:00,28.0,25.0,-100.00,NW,310,8.0,24.0,88,0.00,,,0.08,4.000000,,2013-03-03 00:52:00,
2013-03-02 20:01:00,28.0,25.0,-100.00,NW,310,8.0,24.0,88,0.00,,,0.08,4.000000,,2013-03-03 01:01:00,
2013-03-02 20:32:00,27.0,23.0,-100.00,NW,309,9.0,19.0,85,0.00,,,0.08,0.000000,,2013-03-03 01:32:00,
2013-03-02 20:42:00,27.0,23.0,-100.00,NW,309,9.0,19.0,85,0.00,,,0.08,0.000000,,2013-03-03 01:42:00,
2013-03-02 20:52:00,27.0,23.0,-100.00,NW,309,9.0,19.0,85,0.00,,,0.08,0.000000,,2013-03-03 01:52:00,
2013-03-02 21:01:00,27.0,23.0,-100.00,NW,309,9.0,19.0,85,0.00,,,0.08,0.000000,,2013-03-03 02:01:00,
2013-03-02 21:32:00,27.0,24.0,-100.00,NW,324,6.0,18.0,87,0.00,,,0.08,0.000000,,2013-03-03 02:32:00,
2013-03-02 21:42:00,27.0,24.0,-100.00,NW,324,6.0,18.0,87,0.00,,,0.08,0.000000,,2013-03-03 02:42:00,
2013-03-02 21:52:00,27.0,24.0,-100.00,NW,324,6.0,18.0,87,0.00,,,0.08,0.000000,,2013-03-03 02:52:00,
2013-03-02 22:02:00,27.0,24.0,-100.00,NW,324,6.0,18.0,87,0.00,,,0.08,0.000000,,2013-03-03 03:02:00,
2013-03-02 22:32:00,26.0,21.0,-100.00,NNW,336,5.0,16.0,80,0.00,,,0.08,0.000000,,2013-03-03 03:32:00,
2013-03-02 22:42:00,26.0,21.0,-100.00,NNW,336,5.0,16.0,80,0.00,,,0.08,0.000000,,2013-03-03 03:42:00,
2013-03-02 22:52:00,26.0,21.0,-100.00,NNW,336,5.0,16.0,80,0.00,,,0.08,0.000000,,2013-03-03 03:52:00,
2013-03-02 23:01:00,26.0,21.0,-100.00,NNW,336,5.0,16.0,80,0.00,,,0.08,0.000000,,2013-03-03 04:01:00,
2013-03-02 23:32:00,26.0,18.0,-100.00,NNW,330,3.0,11.0,72,0.00,,,0.08,0.000000,,2013-03-03 04:32:00,
2013-03-02 23:42:00,26.0,18.0,-100.00,NNW,330,3.0,11.0,72,0.00,,,0.08,0.000000,,2013-03-03 04:42:00,
2013-03-02 23:52:00,26.0,18.0,-100.00,NNW,330,3.0,11.0,72,0.00,,,0.08,0.000000,,2013-03-03 04:52:00,